SCP
-0 -0 -0 -0 0 -0 -0 0 0 0 0 0 0 0 0 0 0 0 0 0 0 0 0 0 0 0 0 0 0 0 0 0 0 0 0 0 0 0 0 0 0 0 0 0 0 0 0 0 0 0 0 0 0 0
-0 -0 0 -0 -0 -0 0 0 0 0 0 0 0 0 0 0 0 0 0 0 0 0 0 0 0 0 0 0 0 0 0 0 0 0 0 0 0 0 0 0 0 0 0 0 0 0 0 0 0 0 0 0 0 0
-0 -0 -0 -0 0 -0 -0 -0 -0 0 0 0 0 0 0 0 0 0 0 0 0 0 0 0 0 0 0 0 0 0 0 0 0 0 0 0 0 0 0 0 0 0 0 0 0 0 0 0 0 0 0 0 0 0
-0 -0 -0 -0 -0 -0 0 0 0 0 -0 -0 0 -0 -0 0 0 0 0 0 0 0 0 0 0 0 0 0 0 0 0 0 0 0 0 0 0 0 0 0 0 0 0 0 0 0 0 0 0 0 0 0 0 0
-0 -0 -0 -0 -0 -0 -0 -0 -0 -0 -0 -0 0 -0 -0 -0 -0 0 0 0 0 0 0 0 0 0 0 0 0 0 0 0 0 0 0 0 0 0 0 0 0 0 0 0 0 0 0 0 0 0 0 0 0 0
-0 -0 -0 -0 -0 -0 -0 -0 -0 -0 -0 -0 -0 -0 0 0 0 0 0 0 0 0 0 0 0 0 0 0 0 0 0 0 0 0 0 0 0 0 0 0 0 0 0 0 0 0 0 0 0 0 0 0 0 0
-0 -0 -0 -0 -0 -0 -0 -0 -0 -0 -0 -0 -0 -0 -0 -0 0 0 0 0 0 0 0 0 0 0 0 0 0 0 0 0 0 0 0 0 0 0 0 0 0 0 0 0 0 0 0 0 0 0 0 0 0 0
-0 -0 -0 -0 -0 -0 -0 -0 -0 -0 -0 -0 0 -0 -0 -0 -0 0 0 0 0 0 0 0 0 0 0 0 0 0 0 0 0 0 0 0 0 0 0 0 0 0 0 0 0 0 0 0 0 0 0 0 0 0
-0 -0 -0 -0 -0 -0 -0 -0 -0 -0 -0 -0 0 0 0 0 0 0 -0 0 0 0 0 0 0 0 0 0 0 0 0 0 0 0 0 0 0 0 0 0 0 0 0 0 0 0 0 0 0 0 0 0 0 0
-0 -0 -0 -0 -0 -0 -0 -0 -0 -0 0 0 0 0 0 0 0 0 0 0 0 0 0 0 0 0 0 0 0 0 0 0 0 0 0 0 0 0 0 0 0 0 0 0 0 0 0 0 0 0 0 0 0 0
-0 -0 -0 -0 -0 -0 -0 -0 -0 0 0 0 0 0 0 0 0 0 0 0 0 0 0 0 0 0 0 0 0 0 0 0 0 0 0 0 0 0 0 0 0 0 0 0 0 0 0 0 0 0 0 0 0 0
-0 -0 -0 -0 -0 -0 -0 -0 -0 0 0 0 0 0 0 0 0 0 0 0 0 0 0 0 0 0 0 0 0 0 0 0 0 0 0 0 0 0 0 0 0 0 -0 0 -0 0 0 0 0 0 0 0 0 0
-0 -0 -0 -0 -0 -0 -0 0 0 0 -0 0 0 0 0 0 0 0 0 0 0 0 0 0 0 0 0 0 0 0 0 0 0 0 0 0 0 0 0 0 0 -0 -0 -0 -0 -0 0 -0 -0 0 0 0 0 0
-0 -0 -0 -0 -0 -0 -0 0 0 0 0 0 0 0 0 0 0 0 0 0 0 0 0 0 0 0 0 0 0 0 0 0 0 0 0 0 0 0 0 0 0 0 -0 -0 -0 -0 -0 -0 -0 -0 -0 0 0 0
0 0 -0 0 -0 -0 -0 -0 -0 0 0 0 0 0 0 0 0 0 0 0 0 0 0 0 0 0 0 0 0 0 0 0 0 0 0 0 0 0 0 0 0 0 -0 -0 -0 -0 0 0 -0 -0 -0 -0 -0 -0
0 0 0 0 -0 -0 -0 -0 -0 0 0 0 0 0 0 0 0 0 0 0 0 0 0 0 0 0 0 0 0 0 0 0 0 0 0 0 0 0 0 0 0 0 0 0 0 0 0 0 0 0 -0 -0 0 0
0 0 0 0 0 0 -0 0 0 -0 0 0 0 0 0 0 0 0 0 0 0 0 0 0 0 0 0 0 0 0 0 0 0 0 0 0 0 0 0 0 0 0 0 0 0 0 0 0 0 0 0 -0 -0 -0
0 0 0 0 0 0 0 0 0 0 0 0 0 0 0 0 0 0 0 0 0 0 0 0 0 0 0 0 0 0 0 0 0 0 0 0 0 0 0 0 0 0 0 0 0 0 0 0 0 0 0 0 -0 -0
0 0 -0 -0 0 0 0 0 0 0 0 0 0 0 0 0 0 0 0 0 0 0 0 0 0 0 0 0 0 0 0 0 0 0 0 0 0 0 0 0 0 0 0 0 0 0 0 0 0 0 0 -0 -0 -0
0 0 -0 0 0 0 0 0 0 0 0 0 0 0 0 0 0 0 0 0 0 0 0 0 0 0 0 0 0 0 0 0 0 0 0 0 0 0 0 0 0 0 0 0 0 0 0 0 0 0 0 0 0 0
0 0 0 0 0 0 0 0 0 0 0 0 0 0 0 0 0 0 0 0 0 0 0 0 0 0 0 0 0 0 0 0 0 0 0 0 0 0 0 0 0 0 0 0 0 0 0 0 0 0 0 0 0 0
0 0 0 0 0 0 0 0 0 0 0 0 0 0 0 0 0 0 0 0 0 0 0 0 0 0 0 0 0 0 0 0 0 0 0 0 0 0 0 0 0 0 0 0 0 0 0 0 0 0 0 0 0 0
0 0 0 0 0 0 0 0 0 0 0 0 0 0 0 0 0 0 0 0 0 0 0 0 0 0 0 0 0 0 0 0 0 0 0 0 0 0 0 0 0 0 0 0 0 0 0 0 0 0 0 0 0 0
0 0 0 0 0 0 0 0 0 0 0 0 0 0 0 0 0 0 0 0 0 0 0 0 0 0 0 0 0 0 0 0 0 0 0 0 0 0 0 0 0 0 0 0 0 0 0 0 0 0 0 0 0 0
0 0 0 0 0 0 0 0 0 0 0 0 0 0 0 0 0 0 0 0 0 0 0 0 0 0 0 0 0 0 0 0 0 0 -0 -0 0 0 0 0 -0 -0 0 0 0 0 0 0 0 0 0 0 0 0
0 0 0 0 0 0 0 0 0 0 0 0 0 0 0 0 0 0 0 0 0 0 0 0 0 0 0 0 0 0 0 -0 0 -0 -0 -0 -0 -0 0 0 0 0 0 0 0 0 0 0 0 0 0 0 0 0
0 0 0 0 0 0 0 0 0 0 0 0 0 0 0 0 0 0 0 0 0 0 0 0 0 0 0 0 0 0 0 0 0 0 0 0 0 0 0 0 0 0 0 0 0 0 0 0 0 0 0 0 0 0
0 0 0 0 0 0 0 0 0 0 0 0 0 0 0 0 0 0 0 0 0 0 0 0 0 0 0 0 0 0 0 0 0 0 0 0 0 0 0 0 0 0 0 0 0 0 0 0 0 0 0 0 0 0
0 0 0 0 0 0 0 0 0 0 0 0 0 0 0 0 0 0 0 0 0 0 0 0 0 0 0 0 0 0 0 0 0 0 0 0 0 0 0 0 0 0 0 0 0 0 0 0 0 0 0 0 0 0
0 0 0 0 0 0 0 0 0 0 0 0 0 0 0 0 0 0 0 0 0 0 0 0 0 0 0 0 0 0 0 0 0 0 0 0 0 0 0 0 0 0 0 0 0 0 0 0 0 0 0 0 0 0
0 0 0 0 0 0 0 0 0 0 0 0 0 0 0 0 0 0 0 0 0 0 0 0 0 0 0 0 0 0 0 0 0 0 0 0 0 0 0 0 0 0 0 0 0 0 0 0 0 0 0 0 0 0
0 0 0 0 0 0 0 0 0 0 0 0 0 0 0 0 0 0 0 0 0 0 0 0 0 0 0 0 0 0 0 0 0 0 0 0 0 0 0 0 0 0 0 0 0 0 0 0 0 0 0 0 0 0
0 0 0 0 0 0 0 0 0 0 0 0 0 0 0 0 0 0 0 0 0 0 0 0 0 0 0 0 0 0 0 0 0 0 0 0 0 0 0 0 0 0 0 0 0 0 0 0 0 0 0 0 0 0
Wind_Speed_500mb
94 91 92 91 87 84 83 75 64 63 67 62 56 65 54 49 49 49 53 53 61 33 24 25 22 21 31 29 18 30 13 3 4 5 5 5 6 11 7 11 13 18 16 9 10 7 21 22 9 19 13 29 27 31
96 89 91 91 85 74 73 76 75 71 60 56 55 54 54 57 55 60 63 60 83 48 40 50 45 34 28 25 40 37 5 12 13 8 3 6 5 6 6 8 11 11 12 10 17 13 11 4 16 17 26 20 32 38
99 87 78 77 74 70 67 59 52 54 63 53 52 56 50 53 53 54 55 59 62 55 43 31 41 36 22 39 49 15 10 13 10 14 9 4 5 5 8 8 6 6 11 5 2 22 32 3 9 22 32 35 36 37
80 80 75 74 74 73 70 67 59 55 56 60 55 46 53 57 54 68 84 61 55 29 11 23 24 31 32 23 16 19 24 27 32 16 10 4 4 2 3 4 3 5 3 6 15 29 39 20 24 39 52 47 46 52
75 72 70 70 70 71 70 66 63 60 58 58 61 64 65 70 68 72 58 50 40 18 13 14 30 31 32 35 32 29 33 37 18 9 6 4 6 5 2 3 7 14 9 5 12 12 15 23 39 68 51 53 58 62
63 66 66 59 59 59 61 63 65 62 52 47 43 44 54 57 54 47 34 36 46 56 23 7 12 23 20 26 30 32 27 21 13 9 8 6 4 1 5 6 10 12 12 12 17 46 41 54 46 17 54 67 62 66
56 56 57 58 56 52 50 51 55 56 56 54 47 35 27 22 24 16 18 16 28 24 15 10 6 10 14 13 14 17 17 17 11 8 6 5 4 6 3 7 10 13 20 30 32 39 18 19 38 65 58 66 63 66
49 50 50 49 48 46 44 40 41 41 41 42 47 51 54 58 62 61 43 28 24 23 18 8 5 5 14 9 8 10 8 9 10 8 7 6 3 7 5 9 11 17 26 11 16 34 41 47 41 51 55 59 68 63
44 43 43 43 42 40 39 34 30 29 28 24 23 22 21 30 24 26 33 39 38 19 13 9 4 5 9 9 7 7 6 4 4 4 5 2 2 7 9 11 17 20 19 29 38 44 35 39 43 47 50 59 63 67
40 40 38 38 37 34 32 31 31 28 24 17 13 10 13 14 18 14 14 12 17 22 18 8 5 4 10 6 5 2 1 5 5 5 5 1 2 7 1 14 18 23 25 30 35 30 50 53 54 55 55 55 55 56
35 36 37 35 34 34 33 31 29 26 20 19 18 14 15 18 12 12 13 17 18 9 16 8 12 6 12 3 4 6 3 2 4 5 4 2 5 8 9 14 17 20 20 20 24 28 31 34 45 50 52 47 46 47
36 35 33 32 31 29 30 31 31 27 35 23 12 12 13 14 13 13 6 5 13 6 9 6 8 8 7 8 3 8 2 2 4 7 4 6 6 11 7 9 11 12 12 13 16 20 24 28 31 35 37 42 42 41
36 37 35 31 30 27 24 22 22 23 19 16 10 7 14 14 15 9 6 5 4 5 9 11 4 5 6 6 5 1 4 3 7 5 6 2 17 8 3 4 4 6 7 7 10 14 19 21 22 28 34 35 34 35
33 36 31 25 28 29 27 21 16 13 9 8 13 11 10 6 8 5 4 5 4 2 3 3 0 2 1 3 2 5 4 4 5 7 8 7 16 10 7 5 3 2 2 7 12 15 16 20 24 25 27 30 32 38
29 32 27 20 25 25 27 24 18 10 8 12 11 8 8 5 5 5 7 7 3 2 3 1 4 2 4 3 2 3 4 9 9 4 5 14 14 11 10 6 5 2 3 8 12 14 17 20 20 22 26 28 29 34
28 24 29 27 24 21 22 20 16 14 11 11 14 10 7 3 3 2 4 2 1 3 6 6 2 2 3 0 5 11 5 11 5 5 13 19 17 13 10 7 4 2 6 9 11 13 15 15 17 20 23 25 28 32
21 24 24 21 22 28 19 14 12 15 11 9 9 16 13 13 9 5 5 2 2 7 0 2 6 4 5 4 7 8 7 3 12 16 19 20 17 13 11 8 4 2 3 4 7 10 12 14 16 17 19 25 28 31
24 21 18 24 24 10 25 16 10 10 12 9 5 6 8 10 10 6 4 4 6 4 5 2 2 6 8 7 6 6 7 14 17 19 20 18 17 15 10 8 6 3 2 3 6 9 11 13 16 20 24 26 28 29
19 21 18 18 20 10 7 11 10 9 6 7 12 11 6 5 6 4 2 3 6 6 4 3 4 6 7 8 6 11 20 22 20 24 21 20 19 15 12 9 7 3 4 4 5 8 9 12 17 21 25 30 33 36
13 15 17 18 17 7 6 8 8 7 5 8 9 8 5 5 6 7 5 4 7 4 5 7 9 7 9 13 14 15 22 25 25 23 21 23 22 17 13 10 7 6 6 6 7 9 11 14 19 23 28 31 33 34
14 14 16 17 8 7 7 5 8 7 10 4 7 7 5 6 7 7 8 10 9 11 10 21 23 17 15 13 17 19 22 24 24 21 18 26 23 19 14 12 11 10 10 10 11 12 14 17 21 24 27 28 29 30
11 14 12 6 1 5 8 8 8 7 3 3 3 3 4 4 6 7 8 13 15 17 19 14 19 23 23 22 22 22 23 24 24 24 23 20 21 20 20 18 16 14 14 15 16 16 18 21 23 26 27 27 27 30
10 8 5 2 2 3 2 3 3 3 2 4 2 3 4 3 4 6 9 14 16 22 28 27 23 24 26 25 25 26 26 26 25 23 23 22 22 22 21 20 18 17 17 17 17 17 20 22 23 25 25 26 28 30
4 5 3 0 4 5 7 3 3 2 1 0 1 4 3 3 6 5 7 10 19 20 29 31 29 29 29 30 31 27 26 26 27 27 26 25 24 22 21 19 17 16 17 17 17 19 20 22 22 23 23 25 28 32
4 2 1 4 4 5 4 3 5 1 2 2 3 4 1 4 3 5 6 10 18 23 28 34 35 36 35 31 28 30 32 30 28 25 25 24 24 22 21 19 17 17 17 18 18 20 21 21 20 20 22 26 30 33
3 4 3 5 4 4 7 4 6 5 3 2 7 3 3 2 3 10 6 7 14 14 26 32 34 36 39 37 33 31 29 29 29 29 25 23 22 21 20 20 19 18 18 18 20 21 21 21 19 19 22 26 31 35
8 10 8 9 9 9 7 5 5 3 7 10 5 5 3 3 9 9 8 10 11 12 15 22 29 31 27 23 28 32 28 30 30 27 25 23 23 22 22 22 22 23 22 21 22 22 21 20 20 22 24 26 32 36
6 18 10 19 9 9 6 4 7 10 6 10 13 8 9 14 9 5 5 10 13 19 20 23 28 31 32 34 32 33 36 33 31 31 29 28 26 25 24 25 26 26 25 26 25 23 21 19 20 22 26 29 31 34
6 19 19 9 8 8 14 11 9 10 11 18 6 7 11 14 14 15 21 26 29 31 31 32 34 37 40 41 39 36 36 36 36 37 36 33 29 25 25 28 31 29 27 27 24 20 18 19 21 22 25 28 31 33
11 20 7 8 10 9 9 16 9 12 15 24 19 23 34 56 60 61 64 63 59 56 56 59 55 46 47 47 46 43 40 38 38 37 37 36 33 32 31 28 26 26 25 24 21 19 19 19 22 25 28 31 32 32
17 14 6 7 5 7 10 15 22 29 30 26 37 39 45 41 45 26 10 7 14 23 24 28 33 47 63 57 54 47 43 36 34 36 39 39 38 35 30 24 24 23 23 21 20 19 18 18 20 23 25 27 29 31
11 9 6 5 4 5 12 6 7 8 10 9 10 11 13 12 12 7 7 16 26 33 39 39 38 38 42 56 52 47 40 35 33 32 31 31 30 29 27 25 24 22 20 19 18 16 17 18 20 22 25 27 29 31
4 6 5 3 3 3 3 8 6 7 10 8 8 8 9 9 14 7 11 19 29 36 34 31 25 15 18 36 45 40 36 33 29 24 24 22 21 20 21 22 21 20 18 17 17 17 18 19 20 22 24 27 29 31
Wind_Direction_500mb
51 57 59 68 74 82 91 92 96 110 134 149 161 167 154 160 156 167 138 153 141 104 75 112 119 110 126 137 146 157 112 348 51 90 126 143 149 196 164 162 169 175 175 198 206 240 262 198 176 221 340 15 21 348
54 57 55 56 60 68 71 86 96 96 107 118 125 133 140 144 155 160 118 131 130 109 108 92 95 99 110 119 131 162 77 143 152 110 121 118 145 169 150 188 202 206 192 176 202 214 243 182 58 49 22 21 353 338
56 60 61 62 65 68 73 79 88 95 98 108 123 124 132 147 147 165 138 134 138 102 75 86 69 96 123 144 149 138 150 159 116 109 135 121 143 169 164 221 177 231 251 256 110 253 263 316 38 16 2 355 337 329
53 59 60 63 64 68 70 74 84 91 94 99 104 136 148 129 132 144 138 138 132 121 95 58 87 77 75 124 148 161 162 145 136 108 75 90 120 237 155 85 219 43 158 190 254 274 326 77 33 354 333 329 326 318
49 54 61 63 64 65 67 66 70 81 91 96 101 107 118 133 137 151 132 128 137 118 119 104 73 60 88 96 112 125 145 139 111 92 84 123 135 139 46 2 232 13 16 249 256 10 320 294 317 321 325 327 323 321
46 47 51 55 61 62 65 68 70 73 77 87 92 107 113 122 120 123 78 85 110 114 102 92 72 54 77 101 111 106 102 97 83 84 92 86 131 287 204 232 54 24 354 333 291 310 303 294 306 306 318 318 315 311
43 45 47 51 52 55 59 64 68 70 72 74 80 96 105 113 133 100 97 92 95 98 92 103 80 35 58 82 68 65 69 77 79 82 70 89 101 346 236 249 45 348 322 309 309 318 322 339 314 312 314 312 312 308
42 42 42 45 48 54 57 57 57 62 66 72 77 84 91 93 93 80 80 87 86 82 75 99 81 72 29 47 70 63 64 68 55 86 67 45 10 356 238 65 4 343 330 309 312 312 297 303 309 311 315 317 316 317
38 39 39 40 40 38 40 44 47 47 49 63 71 67 63 59 51 52 63 65 62 80 100 64 82 108 28 50 77 65 81 99 99 105 86 246 109 227 65 351 342 342 333 308 310 311 315 319 322 324 327 331 326 324
28 31 33 34 36 37 33 27 25 25 22 38 45 40 49 23 42 46 32 33 38 37 50 75 23 56 20 30 74 133 95 127 181 71 96 46 189 139 138 341 329 322 324 326 315 327 327 332 335 336 337 335 328 329
27 25 24 23 22 25 28 26 24 19 32 37 31 40 37 29 34 41 49 38 357 57 28 50 43 54 31 34 73 18 113 72 216 108 248 175 236 166 272 322 320 319 317 307 313 318 319 321 329 332 336 337 342 345
29 24 20 18 15 16 21 27 29 40 52 53 69 53 23 24 37 66 36 26 35 52 9 25 3 34 22 42 13 23 61 190 205 131 218 232 134 177 286 309 316 313 319 334 331 338 342 343 339 336 342 350 356 356
21 18 17 17 16 12 11 16 25 31 27 32 38 49 15 358 50 33 29 58 76 22 6 7 51 36 30 57 74 263 183 172 141 205 232 98 149 199 237 274 290 305 342 348 11 7 3 359 353 353 358 2 4 10
13 11 15 21 21 20 16 9 5 14 24 35 27 31 29 37 64 49 55 54 98 65 21 1 48 58 54 126 67 170 88 208 225 232 227 138 184 194 183 202 168 55 360 35 41 36 24 17 14 7 4 5 12 17
11 15 20 18 16 17 17 15 13 22 51 61 34 60 54 110 79 105 99 105 128 117 50 69 92 64 53 106 28 109 177 237 233 241 110 153 170 180 182 168 125 123 48 42 44 44 41 35 19 16 16 15 15 18
15 21 20 17 15 12 11 16 24 56 60 55 62 103 118 147 97 62 89 106 30 63 90 73 81 107 163 141 186 215 217 226 159 138 143 164 173 176 165 139 129 103 75 58 42 31 31 29 18 17 16 18 19 19
10 17 13 6 10 13 3 17 35 52 58 55 56 94 106 83 95 140 147 192 129 127 250 194 208 198 112 203 233 203 226 64 147 152 166 171 173 175 162 151 141 127 69 36 14 12 13 18 17 14 13 16 13 10
4 358 357 7 10 1 31 42 62 68 68 91 100 116 101 118 126 137 166 177 156 193 168 193 135 204 218 219 214 173 171 171 168 173 175 177 179 178 182 185 199 221 296 352 9 9 5 3 1 1 0 359 358 358
351 357 356 354 359 16 33 39 44 89 96 122 137 151 135 139 143 153 155 198 182 184 170 177 232 231 239 223 219 193 186 181 182 181 184 193 195 197 199 204 217 250 304 322 338 341 342 346 347 346 350 351 353 351
330 343 354 5 9 27 64 48 57 81 120 163 160 171 184 213 208 210 213 198 181 198 224 217 226 232 232 260 221 199 187 184 180 180 201 204 202 204 209 214 229 262 274 283 299 314 320 327 334 338 342 344 346 350
304 321 326 342 353 48 77 75 60 82 128 131 173 181 230 218 228 224 239 218 210 217 237 237 244 256 229 205 193 191 195 200 203 206 214 208 208 213 220 225 237 258 270 278 282 287 295 313 323 330 335 339 344 347
281 303 310 318 32 93 85 67 99 118 127 146 176 253 240 229 212 214 232 216 235 231 217 236 233 223 220 218 216 216 216 214 213 213 214 214 212 223 226 230 241 257 271 277 280 283 296 310 320 328 333 340 344 347
281 289 278 249 153 72 125 127 118 126 178 173 213 231 221 236 232 268 256 233 246 238 232 230 226 220 222 225 223 220 217 215 215 219 222 225 226 229 231 237 247 259 268 274 276 282 296 309 318 323 330 336 341 343
223 221 241 47 48 116 132 88 97 107 94 141 252 261 187 236 299 228 258 251 238 235 222 219 218 219 222 227 230 229 227 225 225 227 228 228 232 236 240 245 253 259 268 275 278 288 299 308 315 321 329 335 336 336
214 295 246 40 94 106 64 48 3 147 254 100 293 264 121 331 265 242 245 263 245 234 221 216 219 223 229 236 235 231 234 236 237 236 233 233 235 239 240 246 257 267 274 278 287 297 301 305 312 319 323 326 329 334
192 226 156 158 132 148 166 181 196 213 150 235 230 291 343 301 294 247 235 261 254 248 233 235 239 236 237 237 238 240 239 233 231 235 240 243 242 243 249 253 267 278 281 280 290 295 299 303 308 314 318 322 326 329
189 196 173 163 140 143 109 106 145 201 194 205 186 155 130 250 248 251 271 271 256 244 239 238 243 249 256 255 241 235 234 231 234 238 237 237 234 239 247 259 271 282 288 288 294 295 294 294 301 310 318 325 327 329
166 170 178 168 158 177 137 167 192 214 213 182 150 201 203 204 236 225 262 302 294 265 261 251 242 236 231 232 236 231 231 230 230 229 232 234 238 246 257 266 273 279 281 285 288 288 286 292 304 314 321 326 329 329
162 158 146 123 144 188 217 205 215 207 196 183 207 234 240 231 250 270 286 290 289 286 284 272 260 247 238 234 233 232 231 230 231 229 234 241 248 257 269 267 270 272 270 274 278 279 283 293 303 313 320 326 329 330
172 163 143 155 162 203 204 207 229 235 231 231 252 270 275 275 284 288 290 289 284 280 273 264 257 256 247 240 236 233 232 233 235 239 248 256 267 265 269 268 262 262 270 275 275 274 282 296 311 323 327 326 326 325
157 175 164 187 227 219 227 248 265 271 269 265 261 261 270 291 300 302 268 280 319 318 310 298 278 256 243 236 231 228 231 234 240 246 251 255 260 265 266 257 258 265 266 263 259 265 281 300 310 313 313 316 320 324
165 181 193 204 217 254 285 264 273 267 270 270 270 259 283 281 277 266 263 308 318 319 316 310 296 275 249 229 223 223 226 233 244 256 257 250 249 249 250 253 259 259 258 253 257 269 284 295 304 310 314 318 321 324
156 190 222 270 238 231 253 302 267 281 257 261 260 258 251 255 257 264 300 319 325 327 327 326 324 307 226 200 200 208 222 240 247 243 247 251 249 248 250 253 254 255 252 255 264 274 283 291 298 305 311 316 319 324
Wind_Speed_850mb
94 91 92 91 87 84 83 75 64 63 67 62 56 65 54 49 49 49 53 53 61 33 24 25 22 21 31 29 18 30 13 3 4 5 5 5 6 11 7 11 13 18 16 9 10 7 21 22 9 19 13 29 27 31
96 89 91 91 85 74 73 76 75 71 60 56 55 54 54 57 55 60 63 60 83 48 40 50 45 34 28 25 40 37 5 12 13 8 3 6 5 6 6 8 11 11 12 10 17 13 11 4 16 17 26 20 32 38
99 87 78 77 74 70 67 59 52 54 63 53 52 56 50 53 53 54 55 59 62 55 43 31 41 36 22 39 49 15 10 13 10 14 9 4 5 5 8 8 6 6 11 5 2 22 32 3 9 22 32 35 36 37
80 80 75 74 74 73 70 67 59 55 56 60 55 46 53 57 54 68 84 61 55 29 11 23 24 31 32 23 16 19 24 27 32 16 10 4 4 2 3 4 3 5 3 6 15 29 39 20 24 39 52 47 46 52
75 72 70 70 70 71 70 66 63 60 58 58 61 64 65 70 68 72 58 50 40 18 13 14 30 31 32 35 32 29 33 37 18 9 6 4 6 5 2 3 7 14 9 5 12 12 15 23 39 68 51 53 58 62
63 66 66 59 59 59 61 63 65 62 52 47 43 44 54 57 54 47 34 36 46 56 23 7 12 23 20 26 30 32 27 21 13 9 8 6 4 1 5 6 10 12 12 12 17 46 41 54 46 17 54 67 62 66
56 56 57 58 56 52 50 51 55 56 56 54 47 35 27 22 24 16 18 16 28 24 15 10 6 10 14 13 14 17 17 17 11 8 6 5 4 6 3 7 10 13 20 30 32 39 18 19 38 65 58 66 63 66
49 50 50 49 48 46 44 40 41 41 41 42 47 51 54 58 62 61 43 28 24 23 18 8 5 5 14 9 8 10 8 9 10 8 7 6 3 7 5 9 11 17 26 11 16 34 41 47 41 51 55 59 68 63
44 43 43 43 42 40 39 34 30 29 28 24 23 22 21 30 24 26 33 39 38 19 13 9 4 5 9 9 7 7 6 4 4 4 5 2 2 7 9 11 17 20 19 29 38 44 35 39 43 47 50 59 63 67
40 40 38 38 37 34 32 31 31 28 24 17 13 10 13 14 18 14 14 12 17 22 18 8 5 4 10 6 5 2 1 5 5 5 5 1 2 7 1 14 18 23 25 30 35 30 50 53 54 55 55 55 55 56
35 36 37 35 34 34 33 31 29 26 20 19 18 14 15 18 12 12 13 17 18 9 16 8 12 6 12 3 4 6 3 2 4 5 4 2 5 8 9 14 17 20 20 20 24 28 31 34 45 50 52 47 46 47
36 35 33 32 31 29 30 31 31 27 35 23 12 12 13 14 13 13 6 5 13 6 9 6 8 8 7 8 3 8 2 2 4 7 4 6 6 11 7 9 11 12 12 13 16 20 24 28 31 35 37 42 42 41
36 37 35 31 30 27 24 22 22 23 19 16 10 7 14 14 15 9 6 5 4 5 9 11 4 5 6 6 5 1 4 3 7 5 6 2 17 8 3 4 4 6 7 7 10 14 19 21 22 28 34 35 34 35
33 36 31 25 28 29 27 21 16 13 9 8 13 11 10 6 8 5 4 5 4 2 3 3 0 2 1 3 2 5 4 4 5 7 8 7 16 10 7 5 3 2 2 7 12 15 16 20 24 25 27 30 32 38
29 32 27 20 25 25 27 24 18 10 8 12 11 8 8 5 5 5 7 7 3 2 3 1 4 2 4 3 2 3 4 9 9 4 5 14 14 11 10 6 5 2 3 8 12 14 17 20 20 22 26 28 29 34
28 24 29 27 24 21 22 20 16 14 11 11 14 10 7 3 3 2 4 2 1 3 6 6 2 2 3 0 5 11 5 11 5 5 13 19 17 13 10 7 4 2 6 9 11 13 15 15 17 20 23 25 28 32
21 24 24 21 22 28 19 14 12 15 11 9 9 16 13 13 9 5 5 2 2 7 0 2 6 4 5 4 7 8 7 3 12 16 19 20 17 13 11 8 4 2 3 4 7 10 12 14 16 17 19 25 28 31
24 21 18 24 24 10 25 16 10 10 12 9 5 6 8 10 10 6 4 4 6 4 5 2 2 6 8 7 6 6 7 14 17 19 20 18 17 15 10 8 6 3 2 3 6 9 11 13 16 20 24 26 28 29
19 21 18 18 20 10 7 11 10 9 6 7 12 11 6 5 6 4 2 3 6 6 4 3 4 6 7 8 6 11 20 22 20 24 21 20 19 15 12 9 7 3 4 4 5 8 9 12 17 21 25 30 33 36
13 15 17 18 17 7 6 8 8 7 5 8 9 8 5 5 6 7 5 4 7 4 5 7 9 7 9 13 14 15 22 25 25 23 21 23 22 17 13 10 7 6 6 6 7 9 11 14 19 23 28 31 33 34
14 14 16 17 8 7 7 5 8 7 10 4 7 7 5 6 7 7 8 10 9 11 10 21 23 17 15 13 17 19 22 24 24 21 18 26 23 19 14 12 11 10 10 10 11 12 14 17 21 24 27 28 29 30
11 14 12 6 1 5 8 8 8 7 3 3 3 3 4 4 6 7 8 13 15 17 19 14 19 23 23 22 22 22 23 24 24 24 23 20 21 20 20 18 16 14 14 15 16 16 18 21 23 26 27 27 27 30
10 8 5 2 2 3 2 3 3 3 2 4 2 3 4 3 4 6 9 14 16 22 28 27 23 24 26 25 25 26 26 26 25 23 23 22 22 22 21 20 18 17 17 17 17 17 20 22 23 25 25 26 28 30
4 5 3 0 4 5 7 3 3 2 1 0 1 4 3 3 6 5 7 10 19 20 29 31 29 29 29 30 31 27 26 26 27 27 26 25 24 22 21 19 17 16 17 17 17 19 20 22 22 23 23 25 28 32
4 2 1 4 4 5 4 3 5 1 2 2 3 4 1 4 3 5 6 10 18 23 28 34 35 36 35 31 28 30 32 30 28 25 25 24 24 22 21 19 17 17 17 18 18 20 21 21 20 20 22 26 30 33
3 4 3 5 4 4 7 4 6 5 3 2 7 3 3 2 3 10 6 7 14 14 26 32 34 36 39 37 33 31 29 29 29 29 25 23 22 21 20 20 19 18 18 18 20 21 21 21 19 19 22 26 31 35
8 10 8 9 9 9 7 5 5 3 7 10 5 5 3 3 9 9 8 10 11 12 15 22 29 31 27 23 28 32 28 30 30 27 25 23 23 22 22 22 22 23 22 21 22 22 21 20 20 22 24 26 32 36
6 18 10 19 9 9 6 4 7 10 6 10 13 8 9 14 9 5 5 10 13 19 20 23 28 31 32 34 32 33 36 33 31 31 29 28 26 25 24 25 26 26 25 26 25 23 21 19 20 22 26 29 31 34
6 19 19 9 8 8 14 11 9 10 11 18 6 7 11 14 14 15 21 26 29 31 31 32 34 37 40 41 39 36 36 36 36 37 36 33 29 25 25 28 31 29 27 27 24 20 18 19 21 22 25 28 31 33
11 20 7 8 10 9 9 16 9 12 15 24 19 23 34 56 60 61 64 63 59 56 56 59 55 46 47 47 46 43 40 38 38 37 37 36 33 32 31 28 26 26 25 24 21 19 19 19 22 25 28 31 32 32
17 14 6 7 5 7 10 15 22 29 30 26 37 39 45 41 45 26 10 7 14 23 24 28 33 47 63 57 54 47 43 36 34 36 39 39 38 35 30 24 24 23 23 21 20 19 18 18 20 23 25 27 29 31
11 9 6 5 4 5 12 6 7 8 10 9 10 11 13 12 12 7 7 16 26 33 39 39 38 38 42 56 52 47 40 35 33 32 31 31 30 29 27 25 24 22 20 19 18 16 17 18 20 22 25 27 29 31
4 6 5 3 3 3 3 8 6 7 10 8 8 8 9 9 14 7 11 19 29 36 34 31 25 15 18 36 45 40 36 33 29 24 24 22 21 20 21 22 21 20 18 17 17 17 18 19 20 22 24 27 29 31
Wind_Direction_850mb
51 57 59 68 74 82 91 92 96 110 134 149 161 167 154 160 156 167 138 153 141 104 75 112 119 110 126 137 146 157 112 348 51 90 126 143 149 196 164 162 169 175 175 198 206 240 262 198 176 221 340 15 21 348
54 57 55 56 60 68 71 86 96 96 107 118 125 133 140 144 155 160 118 131 130 109 108 92 95 99 110 119 131 162 77 143 152 110 121 118 145 169 150 188 202 206 192 176 202 214 243 182 58 49 22 21 353 338
56 60 61 62 65 68 73 79 88 95 98 108 123 124 132 147 147 165 138 134 138 102 75 86 69 96 123 144 149 138 150 159 116 109 135 121 143 169 164 221 177 231 251 256 110 253 263 316 38 16 2 355 337 329
53 59 60 63 64 68 70 74 84 91 94 99 104 136 148 129 132 144 138 138 132 121 95 58 87 77 75 124 148 161 162 145 136 108 75 90 120 237 155 85 219 43 158 190 254 274 326 77 33 354 333 329 326 318
49 54 61 63 64 65 67 66 70 81 91 96 101 107 118 133 137 151 132 128 137 118 119 104 73 60 88 96 112 125 145 139 111 92 84 123 135 139 46 2 232 13 16 249 256 10 320 294 317 321 325 327 323 321
46 47 51 55 61 62 65 68 70 73 77 87 92 107 113 122 120 123 78 85 110 114 102 92 72 54 77 101 111 106 102 97 83 84 92 86 131 287 204 232 54 24 354 333 291 310 303 294 306 306 318 318 315 311
43 45 47 51 52 55 59 64 68 70 72 74 80 96 105 113 133 100 97 92 95 98 92 103 80 35 58 82 68 65 69 77 79 82 70 89 101 346 236 249 45 348 322 309 309 318 322 339 314 312 314 312 312 308
42 42 42 45 48 54 57 57 57 62 66 72 77 84 91 93 93 80 80 87 86 82 75 99 81 72 29 47 70 63 64 68 55 86 67 45 10 356 238 65 4 343 330 309 312 312 297 303 309 311 315 317 316 317
38 39 39 40 40 38 40 44 47 47 49 63 71 67 63 59 51 52 63 65 62 80 100 64 82 108 28 50 77 65 81 99 99 105 86 246 109 227 65 351 342 342 333 308 310 311 315 319 322 324 327 331 326 324
28 31 33 34 36 37 33 27 25 25 22 38 45 40 49 23 42 46 32 33 38 37 50 75 23 56 20 30 74 133 95 127 181 71 96 46 189 139 138 341 329 322 324 326 315 327 327 332 335 336 337 335 328 329
27 25 24 23 22 25 28 26 24 19 32 37 31 40 37 29 34 41 49 38 357 57 28 50 43 54 31 34 73 18 113 72 216 108 248 175 236 166 272 322 320 319 317 307 313 318 319 321 329 332 336 337 342 345
29 24 20 18 15 16 21 27 29 40 52 53 69 53 23 24 37 66 36 26 35 52 9 25 3 34 22 42 13 23 61 190 205 131 218 232 134 177 286 309 316 313 319 334 331 338 342 343 339 336 342 350 356 356
21 18 17 17 16 12 11 16 25 31 27 32 38 49 15 358 50 33 29 58 76 22 6 7 51 36 30 57 74 263 183 172 141 205 232 98 149 199 237 274 290 305 342 348 11 7 3 359 353 353 358 2 4 10
13 11 15 21 21 20 16 9 5 14 24 35 27 31 29 37 64 49 55 54 98 65 21 1 48 58 54 126 67 170 88 208 225 232 227 138 184 194 183 202 168 55 360 35 41 36 24 17 14 7 4 5 12 17
11 15 20 18 16 17 17 15 13 22 51 61 34 60 54 110 79 105 99 105 128 117 50 69 92 64 53 106 28 109 177 237 233 241 110 153 170 180 182 168 125 123 48 42 44 44 41 35 19 16 16 15 15 18
15 21 20 17 15 12 11 16 24 56 60 55 62 103 118 147 97 62 89 106 30 63 90 73 81 107 163 141 186 215 217 226 159 138 143 164 173 176 165 139 129 103 75 58 42 31 31 29 18 17 16 18 19 19
10 17 13 6 10 13 3 17 35 52 58 55 56 94 106 83 95 140 147 192 129 127 250 194 208 198 112 203 233 203 226 64 147 152 166 171 173 175 162 151 141 127 69 36 14 12 13 18 17 14 13 16 13 10
4 358 357 7 10 1 31 42 62 68 68 91 100 116 101 118 126 137 166 177 156 193 168 193 135 204 218 219 214 173 171 171 168 173 175 177 179 178 182 185 199 221 296 352 9 9 5 3 1 1 0 359 358 358
351 357 356 354 359 16 33 39 44 89 96 122 137 151 135 139 143 153 155 198 182 184 170 177 232 231 239 223 219 193 186 181 182 181 184 193 195 197 199 204 217 250 304 322 338 341 342 346 347 346 350 351 353 351
330 343 354 5 9 27 64 48 57 81 120 163 160 171 184 213 208 210 213 198 181 198 224 217 226 232 232 260 221 199 187 184 180 180 201 204 202 204 209 214 229 262 274 283 299 314 320 327 334 338 342 344 346 350
304 321 326 342 353 48 77 75 60 82 128 131 173 181 230 218 228 224 239 218 210 217 237 237 244 256 229 205 193 191 195 200 203 206 214 208 208 213 220 225 237 258 270 278 282 287 295 313 323 330 335 339 344 347
281 303 310 318 32 93 85 67 99 118 127 146 176 253 240 229 212 214 232 216 235 231 217 236 233 223 220 218 216 216 216 214 213 213 214 214 212 223 226 230 241 257 271 277 280 283 296 310 320 328 333 340 344 347
281 289 278 249 153 72 125 127 118 126 178 173 213 231 221 236 232 268 256 233 246 238 232 230 226 220 222 225 223 220 217 215 215 219 222 225 226 229 231 237 247 259 268 274 276 282 296 309 318 323 330 336 341 343
223 221 241 47 48 116 132 88 97 107 94 141 252 261 187 236 299 228 258 251 238 235 222 219 218 219 222 227 230 229 227 225 225 227 228 228 232 236 240 245 253 259 268 275 278 288 299 308 315 321 329 335 336 336
214 295 246 40 94 106 64 48 3 147 254 100 293 264 121 331 265 242 245 263 245 234 221 216 219 223 229 236 235 231 234 236 237 236 233 233 235 239 240 246 257 267 274 278 287 297 301 305 312 319 323 326 329 334
192 226 156 158 132 148 166 181 196 213 150 235 230 291 343 301 294 247 235 261 254 248 233 235 239 236 237 237 238 240 239 233 231 235 240 243 242 243 249 253 267 278 281 280 290 295 299 303 308 314 318 322 326 329
189 196 173 163 140 143 109 106 145 201 194 205 186 155 130 250 248 251 271 271 256 244 239 238 243 249 256 255 241 235 234 231 234 238 237 237 234 239 247 259 271 282 288 288 294 295 294 294 301 310 318 325 327 329
166 170 178 168 158 177 137 167 192 214 213 182 150 201 203 204 236 225 262 302 294 265 261 251 242 236 231 232 236 231 231 230 230 229 232 234 238 246 257 266 273 279 281 285 288 288 286 292 304 314 321 326 329 329
162 158 146 123 144 188 217 205 215 207 196 183 207 234 240 231 250 270 286 290 289 286 284 272 260 247 238 234 233 232 231 230 231 229 234 241 248 257 269 267 270 272 270 274 278 279 283 293 303 313 320 326 329 330
172 163 143 155 162 203 204 207 229 235 231 231 252 270 275 275 284 288 290 289 284 280 273 264 257 256 247 240 236 233 232 233 235 239 248 256 267 265 269 268 262 262 270 275 275 274 282 296 311 323 327 326 326 325
157 175 164 187 227 219 227 248 265 271 269 265 261 261 270 291 300 302 268 280 319 318 310 298 278 256 243 236 231 228 231 234 240 246 251 255 260 265 266 257 258 265 266 263 259 265 281 300 310 313 313 316 320 324
165 181 193 204 217 254 285 264 273 267 270 270 270 259 283 281 277 266 263 308 318 319 316 310 296 275 249 229 223 223 226 233 244 256 257 250 249 249 250 253 259 259 258 253 257 269 284 295 304 310 314 318 321 324
156 190 222 270 238 231 253 302 267 281 257 261 260 258 251 255 257 264 300 319 325 327 327 326 324 307 226 200 200 208 222 240 247 243 247 251 249 248 250 253 254 255 252 255 264 274 283 291 298 305 311 316 319 324